Satellite-Ground Cal/Val Site Overpasses Predictions

Prediction of Satellite NPP Overpassing Cal/Val Site: Antarctic Dome C

Ground Cal/Val Site Location: Latitude: -75.10, Longitude: 123.35; Satellite-Ground Site NADIR distance within 100 km.

Table of predicted overpasses for the next 14.0 days since TLE Epoch: 3/4/2023
Interval Starting Time Ending Time Minimum Distance Time Minimum Distance (km)
1 03/04/2023 14:37:51 03/04/2023 14:38:06 03/04/2023 14:37:58 84.69
2 03/05/2023 07:39:25 03/05/2023 07:39:53 03/05/2023 07:39:39 30.19
3 03/06/2023 07:20:43 03/06/2023 07:21:00 03/06/2023 07:20:51 79.94
4 03/08/2023 15:03:00 03/08/2023 15:03:23 03/08/2023 15:03:11 59.59
5 03/09/2023 14:44:11 03/09/2023 14:44:37 03/09/2023 14:44:24 49.33
6 03/10/2023 07:45:53 03/10/2023 07:46:15 03/10/2023 07:46:04 65.85
7 03/11/2023 07:27:03 03/11/2023 07:27:29 03/11/2023 07:27:16 42.06
8 03/13/2023 15:09:34 03/13/2023 15:09:39 03/13/2023 15:09:37 97.73
9 03/14/2023 14:50:34 03/14/2023 14:51:03 03/14/2023 14:50:49 13.50
